Tracking 19831 objects as of 23-Aug-2019
HD Live streaming from Space Station
objects crossing your sky now

COSMOS 2251 DEB

Track COSMOS 2251 DEB now!
10-day predictions


NORAD ID: 34965
Int'l Code: 1993-036AEU
Perigee: 734.1 km
Apogee: 773.1 km
Inclination: 74.1 °
Period: 99.7 minutes
Semi major axis: 7124 km
RCS: 0.0084 m2 (small)
Launch date: June 16, 1993
Source: Commonwealth of Independent States (former USSR) (CIS)
Launch site: PLESETSK MISSILE AND SPACE COMPLEX (PKMTR)

Note: This is SATELLITE DEBRIS
aabbcc
Your satellite tracking list
Your tracking list is empty




NASA's NSSDC Master Catalog

Two Line Element Set (TLE):
1 34965U 93036AEU 19234.32998934 +.00000084 +00000-0 +32301-4 0  9999
2 34965 074.0524 097.2498 0027371 083.1724 039.5456 14.43656095538253
Source of the keplerian elements: AFSPC